Weather History for Charlottetown, PE

Change the Weather History Date:

Saturday, February 22, 2014

  Actual Average Record
Temperature  
Mean Temperature 34 °F -  
Max Temperature 42 °F 31 °F 42 °F (2014)
Min Temperature 27 °F 17 °F -5 °F (2001)
Degree Days  
Heating Degree Days 30    
Moisture  
Dew Point 31 °F    
Average Humidity 81    
Maximum Humidity 100    
Minimum Humidity 56    
Precipitation  
Precipitation 0.28 in 0.12 in - ()
Sea Level Pressure  
Sea Level Pressure 29.75 in    
Wind  
Wind Speed 13 mph ()    
Max Wind Speed 25 mph    
Max Gust Speed 33 mph    
Visibility 11.9 miles    
Events Rain    
Averages and records for this station are not official NWS values.
T = Trace of Precipitation, MM = Missing Value Source: Averaged Metar Reports

Daily Weather History Graph

Daily Weather History Graph

Search for Another Location

Airport:

Trip Planner

Search our weather history database for the weather conditions in past years. The results will help you decide how hot, cold, wet, or windy it might be!

Date:

Astronomy

Feb. 22, 2014 Rise Set
Actual Time 7:04 AM AST 5:48 PM AST
Civil Twilight 6:33 AM AST 6:19 PM AST
Nautical Twilight 5:58 AM AST 6:53 PM AST
Astronomical Twilight 5:24 AM AST 7:28 PM AST
Moon 1:02 AM AST (2/22) 10:47 AM AST (2/22)
Length of Visible Light 11h 45m
Length of Day
10h 44m
Waning Gibbous, 50% of the Moon is Illuminated
Feb 22
Waning Gibbous
Feb 22
Last Quarter
Mar 1
New
Mar 8
First Quarter
Mar 16
Full

Hourly Weather History & Observations

Time (AST) Temp. Windchill Dew Point Humidity Pressure Visibility Wind Dir Wind Speed Gust Speed Precip Events Conditions
12:00 AM 30.2 °F 19.3 °F 24.8 °F 80% 30.01 in 12.0 mi SE 15.0 mph 23.0 mph N/A Rain Light Freezing Rain
12:28 AM 30.2 °F 17.8 °F 26.6 °F 86% 29.98 in 10.0 mi SE 19.6 mph 26.5 mph N/A Rain Light Freezing Rain
1:00 AM 30.2 °F 18.9 °F 28.4 °F 93% 29.96 in 10.0 mi SE 16.1 mph 27.6 mph N/A Rain Light Freezing Rain
2:00 AM 32 °F - 26 °F 69% 29.88 in 12 mi SE 18.4 mph - -   Light Freezing Rain
2:00 AM 32.0 °F 20.1 °F 26.6 °F 80% 29.88 in 12.0 mi SE 19.6 mph 32.2 mph N/A Rain Light Freezing Rain
3:00 AM 32.0 °F 18.6 °F 28.4 °F 87% 29.80 in 10.0 mi SE 25.3 mph 33.4 mph N/A Rain Light Freezing Rain
4:00 AM 32.0 °F 19.5 °F 32.0 °F 100% 29.75 in 10.0 mi SE 21.9 mph 33.4 mph N/A Rain Light Rain
5:00 AM 33.8 °F 22.2 °F 33.8 °F 100% 29.73 in 10.0 mi SSE 20.7 mph 27.6 mph N/A Rain Light Rain
6:00 AM 35.6 °F 24.8 °F 33.8 °F 93% 29.68 in 10.0 mi SSE 19.6 mph - N/A Rain Light Rain Showers
7:00 AM 35.6 °F 27.1 °F 33.8 °F 93% 29.68 in 15.0 mi SSE 12.7 mph 20.7 mph N/A Rain Light Rain Showers
7:26 AM 35.6 °F 27.5 °F 33.8 °F 93% 29.68 in 3.0 mi South 11.5 mph - N/A Rain Light Rain Showers
7:43 AM 35.6 °F 27.5 °F 33.8 °F 93% 29.68 in 2.0 mi South 11.5 mph - N/A Rain Light Rain Showers
8:00 AM 34 °F - 34 °F 98% 29.68 in 2 mi South 9.2 mph - - Rain Light Rain Showers
8:00 AM 33.8 °F 27.0 °F 33.8 °F 100% 29.68 in 2.0 mi South 8.1 mph - N/A Rain Light Rain Showers
8:21 AM 35.6 °F 29.9 °F 35.6 °F 100% 29.68 in 1.2 mi SSW 6.9 mph - N/A Rain Light Rain Showers
9:00 AM 37.4 °F 29.8 °F 37.4 °F 100% 29.70 in 15.0 mi West 11.5 mph 18.4 mph N/A Rain Light Rain Showers
9:07 AM 37.4 °F 29.8 °F 37.4 °F 100% 29.71 in 15.0 mi West 11.5 mph - N/A   Mostly Cloudy
9:22 AM 39.2 °F 30.5 °F 35.6 °F 87% 29.71 in 15.0 mi West 16.1 mph - N/A   Mostly Cloudy
10:00 AM 39.2 °F 31.6 °F 33.8 °F 81% 29.73 in 15.0 mi West 12.7 mph 18.4 mph N/A   Scattered Clouds
11:00 AM 39.2 °F 33.6 °F 30.2 °F 70% 29.75 in 15.0 mi West 8.1 mph - N/A   Scattered Clouds
12:00 PM 37.4 °F 29.3 °F 32.0 °F 81% 29.78 in 15.0 mi WSW 12.7 mph - N/A   Scattered Clouds
1:00 PM 39.2 °F 33.6 °F 30.2 °F 70% 29.77 in 15.0 mi WSW 8.1 mph - N/A   Mostly Cloudy
2:00 PM 40 °F - 31 °F 62% 29.73 in 15 mi SSW 6.9 mph - -   Partly Cloudy
2:00 PM 41.0 °F 36.4 °F 32.0 °F 70% 29.73 in 15.0 mi SSW 6.9 mph - N/A   Scattered Clouds
3:00 PM 42.8 °F 36.2 °F 30.2 °F 61% 29.72 in 15.0 mi SW 12.7 mph 19.6 mph N/A   Partly Cloudy
4:00 PM 41.0 °F 32.8 °F 28.4 °F 61% 29.70 in 15.0 mi SW 16.1 mph 23.0 mph N/A   Partly Cloudy
5:00 PM 41.0 °F 35.8 °F 28.4 °F 61% 29.70 in 15.0 mi SSW 8.1 mph 18.4 mph N/A   Partly Cloudy
6:00 PM 39.2 °F 31.6 °F 28.4 °F 65% 29.70 in 15.0 mi SW 12.7 mph 21.9 mph N/A   Partly Cloudy
7:00 PM 35.6 °F 27.5 °F 28.4 °F 75% 29.74 in 15.0 mi WSW 11.5 mph 19.6 mph N/A   Scattered Clouds
8:00 PM 37 °F - 27 °F 56% 29.73 in 15 mi WSW 15.0 mph - -   Clear
8:00 PM 37.4 °F 28.5 °F 26.6 °F 65% 29.73 in 15.0 mi SW 15.0 mph 24.2 mph N/A   Scattered Clouds
9:00 PM 35.6 °F 28.0 °F 26.6 °F 70% 29.72 in 15.0 mi SW 10.4 mph 18.4 mph N/A   Scattered Clouds
10:00 PM 35.6 °F 27.5 °F 26.6 °F 70% 29.71 in 15.0 mi SW 11.5 mph - N/A   Scattered Clouds
11:00 PM 33.8 °F 27.0 °F 26.6 °F 75% 29.70 in 15.0 mi SW 8.1 mph - N/A   Scattered Clouds